N0ZMJ-3 Weather Reports


Display with metric or nautical units.
time (UTC)temp
F
wind
direction
speed
MPH
gust
MPH
rain 1hr
in
rain 24hr
in
rain mn
in
humidity
%
barometer
mb
20260505030823 44 329 0.0 0.0 0.00 0.00 0.00 63 1007.5
20260505030415 44 329 0.0 0.0 0.00 0.00 0.00 62 1007.5
20260505030126 44 329 0.0 0.0 0.00 0.00 0.00 62 1007.5
20260505025415 45 328 0.0 1.0 0.00 0.00 0.00 60 1007.4
20260505024723 45 329 0.0 2.0 0.00 0.00 0.00 59 1007.4
20260505024415 45 328 0.0 2.0 0.00 0.00 0.00 58 1007.2
20260505024024 45 328 0.0 2.0 0.00 0.00 0.00 58 1007.2
20260505023414 46 328 0.0 3.0 0.00 0.00 0.00 57 1007.1
20260505023329 46 328 0.0 3.0 0.00 0.00 0.00 57 1007.1
20260505022622 46 328 1.0 3.0 0.00 0.00 0.00 57 1007.1
20260505022414 46 328 1.0 2.0 0.00 0.00 0.00 56 1006.9
20260505021923 46 328 0.0 3.0 0.00 0.00 0.00 56 1006.9
20260505021416 46 328 2.0 4.0 0.00 0.00 0.00 56 1006.8
20260505021226 46 328 2.0 4.0 0.00 0.00 0.00 56 1006.8
20260505020526 47 337 2.0 4.0 0.00 0.00 0.00 55 1006.8
20260505020416 47 357 2.0 4.0 0.00 0.00 0.00 54 1006.8
20260505015824 47 351 2.0 5.0 0.00 0.00 0.00 54 1006.6
20260505015415 48 349 2.0 5.0 0.00 0.00 0.00 53 1006.6
20260505015123 48 349 2.0 5.0 0.00 0.00 0.00 53 1006.6
20260505014415 49 343 3.0 8.0 0.00 0.00 0.00 51 1006.4
20260505013724 49 322 3.0 8.0 0.00 0.00 0.00 51 1006.5
20260505013415 50 327 3.0 7.0 0.00 0.00 0.00 50 1006.3
20260505013024 50 327 3.0 7.0 0.00 0.00 0.00 50 1006.3
20260505012415 50 337 2.0 9.0 0.00 0.00 0.00 49 1006.3
20260505012324 50 337 2.0 9.0 0.00 0.00 0.00 49 1006.3
20260505011622 50 355 2.0 9.0 0.00 0.00 0.00 49 1006.1
20260505011414 51 331 2.0 8.0 0.00 0.00 0.00 49 1006.1
20260505010922 51 335 5.0 8.0 0.00 0.00 0.00 48 1006.0
20260505010414 51 327 3.0 11.0 0.00 0.00 0.00 48 1006.0
20260505010221 51 327 3.0 11.0 0.00 0.00 0.00 48 1006.0